Weather History for Newport, RI

Change the Weather History Date:

Saturday, April 27, 2013

  Actual Average Record
Temperature  
Mean Temperature 46 °F -  
Max Temperature 55 °F 58 °F 73 °F (1990)
Min Temperature 36 °F 41 °F 32 °F (1987)
Degree Days  
Heating Degree Days 20    
Moisture  
Dew Point 37 °F    
Average Humidity 79    
Maximum Humidity 100    
Minimum Humidity 40    
Precipitation  
Precipitation 0.00 in - - ()
Sea Level Pressure  
Sea Level Pressure 30.38 in    
Wind  
Wind Speed 2 mph (SSE)    
Max Wind Speed 14 mph    
Max Gust Speed -    
Visibility 7 miles    
Events      
Averages and records for this station are not official NWS values.
T = Trace of Precipitation, MM = Missing Value Source: NWS Daily Summary

Daily Weather History Graph

Daily Weather History Graph

Search for Another Location

Airport:

Trip Planner

Search our weather history database for the weather conditions in past years. The results will help you decide how hot, cold, wet, or windy it might be!

Date:

Astronomy

Apr. 27, 2013 Rise Set
Actual Time 5:47 AM EDT 7:38 PM EDT
Civil Twilight 5:17 AM EDT 8:08 PM EDT
Nautical Twilight 4:41 AM EDT 8:45 PM EDT
Astronomical Twilight 4:02 AM EDT 9:24 PM EDT
Moon 10:06 PM EDT (4/27) 7:01 AM EDT (4/27)
Length of Visible Light 14h 51m
Length of Day
13h 51m
Waning Gibbous, 95% of the Moon is Illuminated
Apr 27
Waning Gibbous
May 2
Last Quarter
May 9
New
May 18
First Quarter
May 25
Full

Hourly Weather History & Observations

Time (EDT) Temp. Windchill Dew Point Humidity Pressure Visibility Wind Dir Wind Speed Gust Speed Precip Events Conditions
12:53 AM 42.1 °F 39.2 °F 39.9 °F 92% 30.40 in 10.0 mi East 4.6 mph - N/A   Clear
1:43 AM 41.0 °F - 39.2 °F 93% 30.40 in 8.0 mi Calm Calm - N/A   Scattered Clouds
1:51 AM 42.8 °F - 39.2 °F 87% 30.40 in 9.0 mi Calm Calm - N/A   Mostly Cloudy
1:53 AM 42.1 °F - 39.9 °F 92% 30.40 in 8.0 mi Calm Calm - N/A   Mostly Cloudy
2:53 AM 41.0 °F - 39.0 °F 93% 30.40 in 6.0 mi Calm Calm - N/A   Scattered Clouds
3:11 AM 39.2 °F - 37.4 °F 93% 30.40 in 1.5 mi Calm Calm - N/A   Partly Cloudy
3:14 AM 39.2 °F - 37.4 °F 93% 30.40 in 0.8 mi Calm Calm - N/A   Mist
3:24 AM 39.2 °F - 37.4 °F 93% 30.40 in 1.0 mi Calm Calm - N/A   Clear
3:33 AM 39.2 °F - 37.4 °F 93% 30.40 in 3.0 mi Calm Calm - N/A   Clear
3:53 AM 39.9 °F - 37.9 °F 93% 30.40 in 9.0 mi Calm Calm - N/A   Clear
4:09 AM 37.4 °F - 37.4 °F 100% 30.40 in 0.8 mi Calm Calm - N/A   Clear
4:20 AM 37.4 °F - 35.6 °F 93% 30.39 in 3.0 mi Calm Calm - N/A   Clear
4:53 AM 36.0 °F - 36.0 °F 100% 30.39 in 0.8 mi Calm Calm - N/A   Clear
5:03 AM 37.4 °F - 35.6 °F 93% 30.39 in 2.0 mi Calm Calm - N/A   Clear
5:11 AM 37.4 °F - 35.6 °F 93% 30.39 in 4.0 mi Calm Calm - N/A   Clear
5:53 AM 37.9 °F - 36.0 °F 93% 30.38 in 4.0 mi Calm Calm - N/A   Clear
6:05 AM 37.4 °F - 37.4 °F 100% 30.38 in 2.5 mi Calm Calm - N/A   Clear
6:31 AM 37.4 °F - 37.4 °F 100% 30.39 in 0.8 mi Calm Calm - N/A   Clear
6:46 AM 39.2 °F - 39.2 °F 100% 30.39 in 3.0 mi Calm Calm - N/A   Clear
6:53 AM 41.0 °F - 39.9 °F 96% 30.39 in 6.0 mi Calm Calm - N/A   Clear
7:53 AM 46.9 °F - 43.0 °F 86% 30.40 in 10.0 mi Calm Calm - N/A   Clear
8:53 AM 50.0 °F - 39.9 °F 68% 30.40 in 10.0 mi Variable 4.6 mph - N/A   Clear
9:53 AM 52.0 °F - 37.9 °F 59% 30.40 in 10.0 mi SE 8.1 mph - N/A   Clear
10:53 AM 54.0 °F - 36.0 °F 51% 30.41 in 10.0 mi ESE 8.1 mph - N/A   Clear
11:53 AM 55.0 °F - 34.0 °F 45% 30.40 in 10.0 mi South 9.2 mph - N/A   Clear
12:53 PM 55.0 °F - 30.9 °F 40% 30.40 in 10.0 mi SSE 8.1 mph - N/A   Clear
1:53 PM 53.1 °F - 30.0 °F 41% 30.38 in 10.0 mi SSE 11.5 mph - N/A   Clear
2:53 PM 54.0 °F - 30.9 °F 41% 30.37 in 10.0 mi SSE 12.7 mph - N/A   Clear
3:53 PM 53.1 °F - 32.0 °F 45% 30.35 in 10.0 mi South 12.7 mph - N/A   Clear
4:53 PM 52.0 °F - 34.0 °F 50% 30.34 in 10.0 mi SSE 13.8 mph - N/A   Clear
5:53 PM 50.0 °F - 35.1 °F 57% 30.35 in 10.0 mi SSE 9.2 mph - N/A   Clear
6:53 PM 48.9 °F - 37.0 °F 64% 30.34 in 10.0 mi SSE 6.9 mph - N/A   Clear
7:53 PM 46.9 °F - 37.0 °F 68% 30.33 in 10.0 mi South 4.6 mph - N/A   Clear
8:53 PM 46.0 °F - 37.0 °F 71% 30.34 in 10.0 mi Calm Calm - N/A   Clear
9:53 PM 45.0 °F 43.5 °F 37.9 °F 76% 30.35 in 10.0 mi South 3.5 mph - N/A   Clear
10:53 PM 45.0 °F - 37.9 °F 76% 30.35 in 10.0 mi Calm Calm - N/A   Clear
11:53 PM 41.0 °F - 37.0 °F 86% 30.35 in 10.0 mi Calm Calm - N/A   Clear